Time,TemperatureF,DewpointF,PressureIn,WindDirection,WindDirectionDegrees,WindSpeedMPH,WindSpeedGustMPH,Humidity,HourlyPrecipIn,Conditions,Clouds,dailyrainin,SoftwareType,DateUTC
2013-05-30 00:01:00,65.5,63.1,30.11,North,8,0.0,0.0,92,0.00,,CLR,0.00,VWS V14.00,2013-05-30 04:01:00,
2013-05-30 00:06:00,65.4,63.0,30.11,North,7,0.0,0.0,92,0.00,,CLR,0.00,VWS V14.00,2013-05-30 04:06:00,
2013-05-30 00:11:00,65.3,62.9,30.11,North,7,0.0,0.0,92,0.00,,CLR,0.00,VWS V14.00,2013-05-30 04:11:00,
2013-05-30 00:17:00,65.1,62.7,30.11,North,7,0.0,0.0,92,0.00,,CLR,0.00,VWS V14.00,2013-05-30 04:17:00,
2013-05-30 00:22:00,64.9,62.5,30.11,North,8,0.0,0.0,92,0.00,,CLR,0.00,VWS V14.00,2013-05-30 04:22:00,
2013-05-30 00:27:00,64.8,63.0,30.11,North,7,0.0,0.0,94,0.00,,CLR,0.00,VWS V14.00,2013-05-30 04:27:00,
2013-05-30 00:32:00,64.6,62.2,30.11,North,7,0.0,0.0,92,0.00,,CLR,0.00,VWS V14.00,2013-05-30 04:32:00,
2013-05-30 00:37:00,64.5,62.4,30.11,North,8,0.0,0.0,93,0.00,,CLR,0.00,VWS V14.00,2013-05-30 04:37:00,
2013-05-30 00:42:00,64.5,62.4,30.11,North,8,0.0,0.0,93,0.00,,CLR,0.00,VWS V14.00,2013-05-30 04:42:00,
2013-05-30 00:47:00,64.4,62.3,30.11,North,8,0.0,0.0,93,0.00,,CLR,0.00,VWS V14.00,2013-05-30 04:47:00,
2013-05-30 00:52:00,64.3,62.2,30.11,North,7,0.0,0.0,93,0.00,,CLR,0.00,VWS V14.00,2013-05-30 04:52:00,
2013-05-30 00:57:00,64.2,62.1,30.11,North,7,0.0,0.0,93,0.00,,CLR,0.00,VWS V14.00,2013-05-30 04:57:00,
2013-05-30 01:02:00,64.0,61.9,30.11,North,7,0.0,0.0,93,0.00,,CLR,0.00,VWS V14.00,2013-05-30 05:02:00,
2013-05-30 01:07:00,64.0,61.9,30.11,North,8,0.0,0.0,93,0.00,,CLR,0.00,VWS V14.00,2013-05-30 05:07:00,
2013-05-30 01:12:00,64.1,62.0,30.11,North,8,0.0,0.0,93,0.00,,CLR,0.00,VWS V14.00,2013-05-30 05:12:00,
2013-05-30 01:17:00,64.2,62.4,30.11,North,8,0.0,0.0,94,0.00,,CLR,0.00,VWS V14.00,2013-05-30 05:17:00,
2013-05-30 01:22:00,64.1,62.0,30.11,North,7,0.0,0.0,93,0.00,,CLR,0.00,VWS V14.00,2013-05-30 05:22:00,
2013-05-30 01:27:00,64.0,61.9,30.11,North,8,0.0,0.0,93,0.00,,CLR,0.00,VWS V14.00,2013-05-30 05:27:00,
2013-05-30 01:32:00,63.9,61.8,30.11,North,7,0.0,0.0,93,0.00,,CLR,0.00,VWS V14.00,2013-05-30 05:32:00,
2013-05-30 01:37:00,63.6,61.5,30.11,North,7,0.0,0.0,93,0.00,,CLR,0.00,VWS V14.00,2013-05-30 05:37:00,
2013-05-30 01:42:00,63.5,61.4,30.11,North,8,0.0,0.0,93,0.00,,CLR,0.00,VWS V14.00,2013-05-30 05:42:00,
2013-05-30 01:46:00,63.3,61.2,30.11,North,7,0.0,0.0,93,0.00,,CLR,0.00,VWS V14.00,2013-05-30 05:46:00,
2013-05-30 01:51:00,63.0,61.0,30.11,North,8,0.0,0.0,93,0.00,,CLR,0.00,VWS V14.00,2013-05-30 05:51:00,
2013-05-30 01:56:00,62.8,60.8,30.11,North,8,0.0,0.0,93,0.00,,CLR,0.00,VWS V14.00,2013-05-30 05:56:00,
2013-05-30 02:01:00,62.5,60.5,30.11,North,7,0.0,0.0,93,0.00,,CLR,0.00,VWS V14.00,2013-05-30 06:01:00,
2013-05-30 02:06:00,62.3,60.6,30.11,North,8,0.0,0.0,94,0.00,,CLR,0.00,VWS V14.00,2013-05-30 06:06:00,
2013-05-30 02:11:00,62.5,61.0,30.11,North,8,0.0,0.0,95,0.00,,CLR,0.00,VWS V14.00,2013-05-30 06:11:00,
2013-05-30 02:16:00,62.6,61.2,30.11,North,7,0.0,0.0,95,0.00,,CLR,0.00,VWS V14.00,2013-05-30 06:16:00,
2013-05-30 02:21:00,62.8,61.3,30.11,North,8,0.0,0.0,95,0.00,,CLR,0.00,VWS V14.00,2013-05-30 06:21:00,
2013-05-30 02:26:00,63.1,61.7,30.11,North,8,0.0,0.0,95,0.00,,CLR,0.00,VWS V14.00,2013-05-30 06:26:00,
2013-05-30 02:31:00,63.2,61.8,30.10,North,8,0.0,0.0,95,0.00,,CLR,0.00,VWS V14.00,2013-05-30 06:31:00,
2013-05-30 02:36:00,63.4,62.0,30.10,North,7,0.0,0.0,95,0.00,,CLR,0.00,VWS V14.00,2013-05-30 06:36:00,
2013-05-30 02:41:00,63.5,62.0,30.10,North,8,0.0,0.0,95,0.00,,CLR,0.00,VWS V14.00,2013-05-30 06:41:00,
2013-05-30 02:46:00,63.6,62.2,30.11,North,8,0.0,0.0,95,0.00,,CLR,0.00,VWS V14.00,2013-05-30 06:46:00,
2013-05-30 02:51:00,63.7,62.2,30.11,North,8,0.0,0.0,95,0.00,,CLR,0.00,VWS V14.00,2013-05-30 06:51:00,
2013-05-30 02:56:00,63.7,62.2,30.11,North,8,0.0,0.0,95,0.00,,CLR,0.00,VWS V14.00,2013-05-30 06:56:00,
2013-05-30 03:01:00,63.7,62.0,30.11,North,7,0.0,0.0,94,0.00,,CLR,0.00,VWS V14.00,2013-05-30 07:01:00,
2013-05-30 03:06:00,63.7,62.0,30.11,North,8,0.0,0.0,94,0.00,,CLR,0.00,VWS V14.00,2013-05-30 07:06:00,
2013-05-30 03:11:00,63.8,62.3,30.11,North,8,0.0,0.0,95,0.00,,CLR,0.00,VWS V14.00,2013-05-30 07:11:00,
2013-05-30 03:16:00,63.8,62.3,30.11,North,8,0.0,0.0,95,0.00,,CLR,0.00,VWS V14.00,2013-05-30 07:16:00,
2013-05-30 03:21:00,63.7,62.0,30.11,North,8,0.0,0.0,94,0.00,,CLR,0.00,VWS V14.00,2013-05-30 07:21:00,
2013-05-30 03:26:00,63.6,61.8,30.11,North,8,0.0,0.0,94,0.00,,CLR,0.00,VWS V14.00,2013-05-30 07:26:00,
2013-05-30 03:31:00,63.4,61.7,30.11,North,7,0.0,0.0,94,0.00,,CLR,0.00,VWS V14.00,2013-05-30 07:31:00,
2013-05-30 03:37:00,63.0,61.2,30.11,North,7,0.0,0.0,94,0.00,,CLR,0.00,VWS V14.00,2013-05-30 07:37:00,
2013-05-30 03:42:00,62.9,61.2,30.11,North,7,0.0,0.0,94,0.00,,CLR,0.00,VWS V14.00,2013-05-30 07:42:00,
2013-05-30 03:47:00,62.6,60.5,30.11,North,7,0.0,0.0,93,0.00,,CLR,0.00,VWS V14.00,2013-05-30 07:47:00,
2013-05-30 03:52:00,62.2,60.5,30.11,North,8,0.0,0.0,94,0.00,,CLR,0.00,VWS V14.00,2013-05-30 07:52:00,
2013-05-30 03:57:00,62.0,60.3,30.11,North,8,0.0,0.0,94,0.00,,CLR,0.00,VWS V14.00,2013-05-30 07:57:00,
2013-05-30 04:02:00,61.9,60.2,30.11,North,7,0.0,0.0,94,0.00,,CLR,0.00,VWS V14.00,2013-05-30 08:02:00,
2013-05-30 04:07:00,61.6,59.9,30.11,North,8,0.0,1.0,94,0.00,,CLR,0.00,VWS V14.00,2013-05-30 08:07:00,
2013-05-30 04:12:00,61.3,59.6,30.11,North,6,0.0,1.0,94,0.00,,CLR,0.00,VWS V14.00,2013-05-30 08:12:00,
2013-05-30 04:17:00,61.1,59.7,30.12,North,6,0.0,1.0,95,0.00,,CLR,0.00,VWS V14.00,2013-05-30 08:17:00,
2013-05-30 04:22:00,60.9,59.2,30.12,North,6,0.0,1.0,94,0.00,,CLR,0.00,VWS V14.00,2013-05-30 08:22:00,
2013-05-30 04:27:00,60.6,59.2,30.12,North,6,1.0,1.0,95,0.00,,CLR,0.00,VWS V14.00,2013-05-30 08:27:00,
2013-05-30 04:32:00,60.4,59.0,30.13,North,359,0.0,0.0,95,0.00,,CLR,0.00,VWS V14.00,2013-05-30 08:32:00,
2013-05-30 04:37:00,60.2,58.8,30.13,North,359,0.0,1.0,95,0.00,,CLR,0.00,VWS V14.00,2013-05-30 08:37:00,
2013-05-30 04:42:00,60.2,58.8,30.13,North,359,0.0,1.0,95,0.00,,CLR,0.00,VWS V14.00,2013-05-30 08:42:00,
2013-05-30 04:47:00,60.0,58.6,30.14,North,359,0.0,1.0,95,0.00,,CLR,0.00,VWS V14.00,2013-05-30 08:47:00,
2013-05-30 04:52:00,60.0,58.6,30.14,North,359,0.0,1.0,95,0.00,,CLR,0.00,VWS V14.00,2013-05-30 08:52:00,
2013-05-30 04:57:00,60.0,58.6,30.14,North,359,0.0,1.0,95,0.00,,CLR,0.00,VWS V14.00,2013-05-30 08:57:00,
2013-05-30 05:02:00,60.0,58.6,30.14,North,359,0.0,0.0,95,0.00,,CLR,0.00,VWS V14.00,2013-05-30 09:02:00,
2013-05-30 05:07:00,60.0,58.6,30.14,North,359,0.0,0.0,95,0.00,,CLR,0.00,VWS V14.00,2013-05-30 09:07:00,
2013-05-30 05:12:00,60.0,58.6,30.14,North,359,0.0,1.0,95,0.00,,CLR,0.00,VWS V14.00,2013-05-30 09:12:00,
2013-05-30 05:17:00,60.0,58.6,30.14,North,359,0.0,1.0,95,0.00,,CLR,0.00,VWS V14.00,2013-05-30 09:17:00,
2013-05-30 05:22:00,60.0,58.6,30.14,North,359,0.0,1.0,95,0.00,,CLR,0.00,VWS V14.00,2013-05-30 09:22:00,
2013-05-30 05:27:00,60.0,58.9,30.14,North,359,0.0,1.0,96,0.00,,CLR,0.00,VWS V14.00,2013-05-30 09:27:00,
2013-05-30 05:32:00,60.0,58.9,30.14,North,359,0.0,0.0,96,0.00,,CLR,0.00,VWS V14.00,2013-05-30 09:32:00,
2013-05-30 05:37:00,60.0,58.9,30.14,North,359,0.0,0.0,96,0.00,,CLR,0.00,VWS V14.00,2013-05-30 09:37:00,
2013-05-30 05:42:00,59.9,58.8,30.14,North,359,0.0,0.0,96,0.00,,CLR,0.00,VWS V14.00,2013-05-30 09:42:00,
2013-05-30 05:47:00,59.8,58.4,30.15,North,359,0.0,0.0,95,0.00,,CLR,0.00,VWS V14.00,2013-05-30 09:47:00,
2013-05-30 05:52:00,59.7,58.3,30.15,North,359,0.0,0.0,95,0.00,,CLR,0.00,VWS V14.00,2013-05-30 09:52:00,
2013-05-30 05:57:00,59.7,58.3,30.15,North,359,0.0,0.0,95,0.00,,CLR,0.00,VWS V14.00,2013-05-30 09:57:00,
2013-05-30 06:02:00,59.7,58.3,30.16,North,359,0.0,0.0,95,0.00,,CLR,0.00,VWS V14.00,2013-05-30 10:02:00,
2013-05-30 06:07:00,59.6,58.2,30.16,North,359,0.0,0.0,95,0.00,,CLR,0.00,VWS V14.00,2013-05-30 10:07:00,
2013-05-30 06:12:00,59.6,58.2,30.16,North,359,0.0,0.0,95,0.00,,CLR,0.00,VWS V14.00,2013-05-30 10:12:00,
2013-05-30 06:17:00,59.8,58.7,30.16,North,359,0.0,0.0,96,0.00,,CLR,0.00,VWS V14.00,2013-05-30 10:17:00,
2013-05-30 06:22:00,60.0,58.9,30.16,North,359,0.0,0.0,96,0.00,,CLR,0.00,VWS V14.00,2013-05-30 10:22:00,
2013-05-30 06:27:00,60.2,59.1,30.16,North,359,0.0,0.0,96,0.00,,CLR,0.00,VWS V14.00,2013-05-30 10:27:00,
2013-05-30 06:32:00,60.4,59.3,30.17,North,359,0.0,0.0,96,0.00,,CLR,0.00,VWS V14.00,2013-05-30 10:32:00,
2013-05-30 06:37:00,60.4,59.3,30.17,North,359,0.0,0.0,96,0.00,,CLR,0.00,VWS V14.00,2013-05-30 10:37:00,
2013-05-30 06:42:00,60.5,59.4,30.17,North,359,0.0,0.0,96,0.00,,CLR,0.00,VWS V14.00,2013-05-30 10:42:00,
2013-05-30 06:47:00,60.7,59.6,30.16,North,359,0.0,0.0,96,0.00,,CLR,0.00,VWS V14.00,2013-05-30 10:47:00,
2013-05-30 06:52:00,60.9,59.8,30.16,North,359,0.0,0.0,96,0.00,,CLR,0.00,VWS V14.00,2013-05-30 10:52:00,
2013-05-30 06:57:00,61.2,60.0,30.16,North,359,0.0,0.0,96,0.00,,CLR,0.00,VWS V14.00,2013-05-30 10:57:00,
2013-05-30 07:02:00,61.4,60.2,30.17,North,359,0.0,0.0,96,0.00,,CLR,0.00,VWS V14.00,2013-05-30 11:02:00,
2013-05-30 07:07:00,61.4,60.2,30.17,North,359,0.0,0.0,96,0.00,,CLR,0.00,VWS V14.00,2013-05-30 11:07:00,
2013-05-30 07:12:00,61.7,60.5,30.17,North,359,0.0,0.0,96,0.00,,CLR,0.00,VWS V14.00,2013-05-30 11:12:00,
2013-05-30 07:17:00,61.8,60.7,30.17,North,359,0.0,0.0,96,0.00,,CLR,0.00,VWS V14.00,2013-05-30 11:17:00,
2013-05-30 07:22:00,62.1,61.0,30.17,North,359,0.0,0.0,96,0.00,,CLR,0.00,VWS V14.00,2013-05-30 11:22:00,
2013-05-30 07:27:00,62.6,61.5,30.17,North,359,0.0,0.0,96,0.00,,CLR,0.00,VWS V14.00,2013-05-30 11:27:00,
2013-05-30 07:32:00,63.1,61.9,30.17,North,359,0.0,0.0,96,0.00,,CLR,0.00,VWS V14.00,2013-05-30 11:32:00,
2013-05-30 07:37:00,63.6,62.4,30.17,North,359,0.0,0.0,96,0.00,,CLR,0.00,VWS V14.00,2013-05-30 11:37:00,
2013-05-30 07:42:00,64.1,62.9,30.17,North,359,0.0,0.0,96,0.00,,CLR,0.00,VWS V14.00,2013-05-30 11:42:00,
2013-05-30 07:47:00,64.7,63.5,30.17,North,359,0.0,0.0,96,0.00,,CLR,0.00,VWS V14.00,2013-05-30 11:47:00,
2013-05-30 07:52:00,65.3,63.8,30.17,North,359,0.0,0.0,95,0.00,,CLR,0.00,VWS V14.00,2013-05-30 11:52:00,
2013-05-30 07:57:00,65.8,64.0,30.17,North,359,0.0,0.0,94,0.00,,CLR,0.00,VWS V14.00,2013-05-30 11:57:00,
2013-05-30 08:02:00,66.2,64.4,30.17,North,359,0.0,0.0,94,0.00,,CLR,0.00,VWS V14.00,2013-05-30 12:02:00,
2013-05-30 08:07:00,66.8,65.0,30.17,North,359,0.0,0.0,94,0.00,,CLR,0.00,VWS V14.00,2013-05-30 12:07:00,
2013-05-30 08:12:00,67.4,65.3,30.17,North,359,0.0,0.0,93,0.00,,CLR,0.00,VWS V14.00,2013-05-30 12:12:00,
2013-05-30 08:17:00,68.0,65.6,30.17,North,359,0.0,0.0,92,0.00,,CLR,0.00,VWS V14.00,2013-05-30 12:17:00,
2013-05-30 08:22:00,68.3,65.9,30.17,North,359,0.0,0.0,92,0.00,,CLR,0.00,VWS V14.00,2013-05-30 12:22:00,
2013-05-30 08:27:00,68.7,66.3,30.17,NW,323,0.0,2.0,92,0.00,,CLR,0.00,VWS V14.00,2013-05-30 12:27:00,
2013-05-30 08:32:00,68.8,65.8,30.18,NW,321,0.0,0.0,90,0.00,,CLR,0.00,VWS V14.00,2013-05-30 12:32:00,
2013-05-30 08:37:00,69.0,65.9,30.18,NW,322,0.0,1.0,90,0.00,,CLR,0.00,VWS V14.00,2013-05-30 12:37:00,
2013-05-30 08:42:00,69.2,66.2,30.18,NW,321,0.0,1.0,90,0.00,,CLR,0.00,VWS V14.00,2013-05-30 12:42:00,
2013-05-30 08:47:00,69.6,66.2,30.18,West,281,0.0,1.0,89,0.00,,CLR,0.00,VWS V14.00,2013-05-30 12:47:00,
2013-05-30 08:52:00,69.9,66.8,30.18,West,278,0.0,1.0,90,0.00,,CLR,0.00,VWS V14.00,2013-05-30 12:52:00,
2013-05-30 08:57:00,70.2,66.5,30.18,West,278,0.0,1.0,88,0.00,,CLR,0.00,VWS V14.00,2013-05-30 12:57:00,
2013-05-30 09:02:00,70.7,67.0,30.19,WNW,290,0.0,0.0,88,0.00,,CLR,0.00,VWS V14.00,2013-05-30 13:02:00,
2013-05-30 09:07:00,71.1,67.0,30.19,WNW,290,0.0,0.0,87,0.00,,CLR,0.00,VWS V14.00,2013-05-30 13:07:00,
2013-05-30 09:12:00,71.3,67.2,30.19,WNW,290,0.0,0.0,87,0.00,,CLR,0.00,VWS V14.00,2013-05-30 13:12:00,
2013-05-30 09:17:00,71.8,67.7,30.19,WNW,291,0.0,0.0,87,0.00,,CLR,0.00,VWS V14.00,2013-05-30 13:17:00,
2013-05-30 09:22:00,72.1,67.7,30.19,WNW,293,0.0,0.0,86,0.00,,CLR,0.00,VWS V14.00,2013-05-30 13:22:00,
2013-05-30 09:27:00,72.4,67.6,30.19,SW,217,0.0,3.0,85,0.00,,CLR,0.00,VWS V14.00,2013-05-30 13:27:00,
2013-05-30 09:32:00,72.7,67.2,30.19,SW,217,0.0,1.0,83,0.00,,CLR,0.00,VWS V14.00,2013-05-30 13:32:00,
2013-05-30 09:37:00,73.2,68.4,30.19,SW,217,0.0,1.0,85,0.00,,CLR,0.00,VWS V14.00,2013-05-30 13:37:00,
2013-05-30 09:42:00,73.5,67.7,30.19,SW,216,0.0,1.0,82,0.00,,CLR,0.00,VWS V14.00,2013-05-30 13:42:00,
2013-05-30 09:47:00,73.6,67.4,30.19,SSW,212,0.0,5.0,81,0.00,,CLR,0.00,VWS V14.00,2013-05-30 13:47:00,
2013-05-30 09:52:00,73.7,67.9,30.19,SW,226,0.0,5.0,82,0.00,,CLR,0.00,VWS V14.00,2013-05-30 13:52:00,
2013-05-30 09:57:00,74.0,68.2,30.19,SW,226,0.0,5.0,82,0.00,,CLR,0.00,VWS V14.00,2013-05-30 13:57:00,
2013-05-30 10:02:00,74.3,68.4,30.18,SW,226,0.0,1.0,82,0.00,,CLR,0.00,VWS V14.00,2013-05-30 14:02:00,
2013-05-30 10:07:00,74.8,68.2,30.18,NW,325,2.0,3.0,80,0.00,,CLR,0.00,VWS V14.00,2013-05-30 14:07:00,
2013-05-30 10:12:00,75.2,67.9,30.18,NNW,332,0.0,5.0,78,0.00,,CLR,0.00,VWS V14.00,2013-05-30 14:12:00,
2013-05-30 10:17:00,75.4,68.1,30.19,WSW,237,0.0,5.0,78,0.00,,CLR,0.00,VWS V14.00,2013-05-30 14:17:00,
2013-05-30 10:22:00,75.8,68.1,30.19,WSW,240,0.0,5.0,77,0.00,,CLR,0.00,VWS V14.00,2013-05-30 14:22:00,
2013-05-30 10:27:00,76.4,68.7,30.19,WSW,240,0.0,5.0,77,0.00,,CLR,0.00,VWS V14.00,2013-05-30 14:27:00,
2013-05-30 10:32:00,76.3,68.6,30.18,SSW,212,0.0,0.0,77,0.00,,CLR,0.00,VWS V14.00,2013-05-30 14:32:00,
2013-05-30 10:37:00,76.5,68.4,30.18,WSW,238,0.0,3.0,76,0.00,,CLR,0.00,VWS V14.00,2013-05-30 14:37:00,
2013-05-30 10:42:00,76.2,68.1,30.18,SW,236,0.0,3.0,76,0.00,,CLR,0.00,VWS V14.00,2013-05-30 14:42:00,
2013-05-30 10:47:00,75.8,67.7,30.18,SW,217,0.0,3.0,76,0.00,,CLR,0.00,VWS V14.00,2013-05-30 14:47:00,
2013-05-30 10:52:00,75.9,67.4,30.18,WSW,241,2.0,3.0,75,0.00,,CLR,0.00,VWS V14.00,2013-05-30 14:52:00,
2013-05-30 10:57:00,75.7,67.6,30.18,WSW,240,0.0,3.0,76,0.00,,CLR,0.00,VWS V14.00,2013-05-30 14:57:00,
2013-05-30 11:02:00,75.5,67.4,30.18,WSW,240,0.0,2.0,76,0.00,,CLR,0.00,VWS V14.00,2013-05-30 15:02:00,
2013-05-30 11:06:00,75.1,66.6,30.18,WSW,242,0.0,2.0,75,0.00,,CLR,0.00,VWS V14.00,2013-05-30 15:06:00,
2013-05-30 11:11:00,75.1,67.0,30.18,NW,321,0.0,3.0,76,0.00,,CLR,0.00,VWS V14.00,2013-05-30 15:11:00,
2013-05-30 11:17:00,75.3,67.2,30.18,NW,321,0.0,3.0,76,0.00,,CLR,0.00,VWS V14.00,2013-05-30 15:17:00,
2013-05-30 11:21:00,75.5,67.4,30.18,NW,321,0.0,3.0,76,0.00,,CLR,0.00,VWS V14.00,2013-05-30 15:21:00,
2013-05-30 11:27:00,75.8,67.7,30.18,NW,321,0.0,3.0,76,0.00,,CLR,0.00,VWS V14.00,2013-05-30 15:27:00,
2013-05-30 11:31:00,76.1,68.0,30.17,NW,321,0.0,0.0,76,0.00,,CLR,0.00,VWS V14.00,2013-05-30 15:31:00,
2013-05-30 11:36:00,76.3,68.6,30.17,NW,323,0.0,0.0,77,0.00,,CLR,0.00,VWS V14.00,2013-05-30 15:36:00,
2013-05-30 11:41:00,76.7,68.6,30.17,NW,322,0.0,1.0,76,0.00,,CLR,0.00,VWS V14.00,2013-05-30 15:41:00,
2013-05-30 11:46:00,77.4,68.5,30.17,NW,323,0.0,1.0,74,0.00,,CLR,0.00,VWS V14.00,2013-05-30 15:46:00,
2013-05-30 11:52:00,77.3,67.2,30.17,WSW,255,0.0,1.0,71,0.00,,CLR,0.00,VWS V14.00,2013-05-30 15:52:00,
2013-05-30 11:56:00,77.5,68.6,30.17,WSW,255,0.0,2.0,74,0.00,,CLR,0.00,VWS V14.00,2013-05-30 15:56:00,
2013-05-30 12:02:00,78.0,68.7,30.17,WSW,252,0.0,1.0,73,0.00,,CLR,0.00,VWS V14.00,2013-05-30 16:02:00,
2013-05-30 12:06:00,78.2,68.0,30.17,WSW,252,0.0,1.0,71,0.00,,CLR,0.00,VWS V14.00,2013-05-30 16:06:00,
2013-05-30 12:11:00,78.1,68.8,30.17,WSW,252,0.0,1.0,73,0.00,,CLR,0.00,VWS V14.00,2013-05-30 16:11:00,
2013-05-30 12:16:00,77.8,68.5,30.17,WSW,252,0.0,1.0,73,0.00,,CLR,0.00,VWS V14.00,2013-05-30 16:16:00,
2013-05-30 12:21:00,77.3,68.4,30.17,WSW,252,0.0,1.0,74,0.00,,CLR,0.00,VWS V14.00,2013-05-30 16:21:00,
2013-05-30 12:26:00,77.1,68.2,30.17,WSW,252,0.0,1.0,74,0.00,,CLR,0.00,VWS V14.00,2013-05-30 16:26:00,
2013-05-30 12:31:00,77.7,68.8,30.16,WSW,252,0.0,0.0,74,0.00,,CLR,0.00,VWS V14.00,2013-05-30 16:31:00,
2013-05-30 12:36:00,77.8,68.9,30.16,WSW,252,0.0,0.0,74,0.00,,CLR,0.00,VWS V14.00,2013-05-30 16:36:00,
2013-05-30 12:41:00,77.8,68.1,30.16,WSW,252,0.0,0.0,72,0.00,,CLR,0.00,VWS V14.00,2013-05-30 16:41:00,
2013-05-30 12:46:00,77.9,68.6,30.16,WSW,252,0.0,0.0,73,0.00,,CLR,0.00,VWS V14.00,2013-05-30 16:46:00,
2013-05-30 12:51:00,78.1,67.5,30.16,SSE,155,1.0,3.0,70,0.00,,CLR,0.00,VWS V14.00,2013-05-30 16:51:00,
2013-05-30 12:56:00,78.0,68.7,30.16,SSE,160,0.0,3.0,73,0.00,,CLR,0.00,VWS V14.00,2013-05-30 16:56:00,
2013-05-30 13:01:00,77.8,68.5,30.16,West,266,0.0,2.0,73,0.00,,CLR,0.00,VWS V14.00,2013-05-30 17:01:00,
2013-05-30 13:06:00,78.1,69.1,30.16,West,266,0.0,2.0,74,0.00,,CLR,0.00,VWS V14.00,2013-05-30 17:06:00,
2013-05-30 13:11:00,78.7,68.5,30.16,NNW,338,0.0,2.0,71,0.00,,CLR,0.00,VWS V14.00,2013-05-30 17:11:00,
2013-05-30 13:16:00,78.9,67.4,30.15,NW,316,0.0,2.0,68,0.00,,CLR,0.00,VWS V14.00,2013-05-30 17:16:00,
2013-05-30 13:21:00,79.1,68.1,30.15,NW,317,0.0,2.0,69,0.00,,CLR,0.00,VWS V14.00,2013-05-30 17:21:00,
2013-05-30 13:26:00,78.7,68.1,30.15,West,279,0.0,2.0,70,0.00,,CLR,0.00,VWS V14.00,2013-05-30 17:26:00,
2013-05-30 13:31:00,78.5,68.7,30.14,West,269,0.0,1.0,72,0.00,,CLR,0.00,VWS V14.00,2013-05-30 17:31:00,
2013-05-30 13:36:00,78.4,68.2,30.14,WSW,253,0.0,3.0,71,0.00,,CLR,0.00,VWS V14.00,2013-05-30 17:36:00,
2013-05-30 13:41:00,78.6,68.4,30.14,West,262,0.0,3.0,71,0.00,,CLR,0.00,VWS V14.00,2013-05-30 17:41:00,
2013-05-30 13:46:00,78.7,68.1,30.14,West,260,0.0,3.0,70,0.00,,CLR,0.00,VWS V14.00,2013-05-30 17:46:00,
2013-05-30 13:51:00,79.1,68.5,30.14,West,260,0.0,3.0,70,0.00,,CLR,0.00,VWS V14.00,2013-05-30 17:51:00,
2013-05-30 13:56:00,79.3,68.3,30.14,West,274,0.0,3.0,69,0.00,,CLR,0.00,VWS V14.00,2013-05-30 17:56:00,
2013-05-30 14:01:00,79.3,67.8,30.14,West,274,0.0,0.0,68,0.00,,CLR,0.00,VWS V14.00,2013-05-30 18:01:00,
2013-05-30 14:06:00,79.5,68.9,30.14,West,274,0.0,0.0,70,0.00,,CLR,0.00,VWS V14.00,2013-05-30 18:06:00,
2013-05-30 14:11:00,79.6,67.2,30.14,West,280,0.0,0.0,66,0.00,,CLR,0.00,VWS V14.00,2013-05-30 18:11:00,
2013-05-30 14:16:00,79.9,68.0,30.13,South,171,0.0,1.0,67,0.00,,CLR,0.00,VWS V14.00,2013-05-30 18:16:00,
2013-05-30 14:21:00,80.5,69.4,30.13,SSW,204,1.0,2.0,69,0.00,,CLR,0.00,VWS V14.00,2013-05-30 18:21:00,
2013-05-30 14:26:00,81.6,69.6,30.13,WSW,245,0.0,4.0,67,0.00,,CLR,0.00,VWS V14.00,2013-05-30 18:26:00,
2013-05-30 14:31:00,82.1,68.3,30.13,WSW,245,0.0,1.0,63,0.00,,CLR,0.00,VWS V14.00,2013-05-30 18:31:00,
2013-05-30 14:36:00,81.7,70.1,30.13,WSW,245,0.0,1.0,68,0.00,,CLR,0.00,VWS V14.00,2013-05-30 18:36:00,
2013-05-30 14:41:00,81.6,70.0,30.13,North,0,1.0,1.0,68,0.00,,CLR,0.00,VWS V14.00,2013-05-30 18:41:00,
2013-05-30 14:46:00,81.8,69.8,30.13,ENE,70,0.0,1.0,67,0.00,,CLR,0.00,VWS V14.00,2013-05-30 18:46:00,
2013-05-30 14:51:00,82.2,70.6,30.13,East,94,0.0,4.0,68,0.00,,CLR,0.00,VWS V14.00,2013-05-30 18:51:00,
2013-05-30 14:56:00,82.6,68.3,30.13,South,172,0.0,4.0,62,0.00,,CLR,0.00,VWS V14.00,2013-05-30 18:56:00,
2013-05-30 15:01:00,82.9,69.9,30.11,South,172,0.0,0.0,65,0.00,,CLR,0.00,VWS V14.00,2013-05-30 19:01:00,
2013-05-30 15:06:00,83.4,68.6,30.11,South,186,0.0,1.0,61,0.00,,CLR,0.00,VWS V14.00,2013-05-30 19:06:00,
2013-05-30 15:11:00,83.6,68.3,30.11,East,79,0.0,1.0,60,0.00,,CLR,0.00,VWS V14.00,2013-05-30 19:11:00,
2013-05-30 15:16:00,83.6,69.7,30.11,NE,49,1.0,4.0,63,0.00,,CLR,0.00,VWS V14.00,2013-05-30 19:16:00,
2013-05-30 15:22:00,83.8,69.9,30.11,WNW,287,0.0,4.0,63,0.00,,CLR,0.00,VWS V14.00,2013-05-30 19:22:00,
2013-05-30 15:27:00,83.9,69.5,30.11,South,174,0.0,4.0,62,0.00,,CLR,0.00,VWS V14.00,2013-05-30 19:27:00,
2013-05-30 15:32:00,84.0,69.1,30.11,South,174,0.0,1.0,61,0.00,,CLR,0.00,VWS V14.00,2013-05-30 19:32:00,
2013-05-30 15:37:00,83.9,69.0,30.11,South,174,0.0,1.0,61,0.00,,CLR,0.00,VWS V14.00,2013-05-30 19:37:00,
2013-05-30 15:42:00,83.8,69.4,30.11,South,174,0.0,1.0,62,0.00,,CLR,0.00,VWS V14.00,2013-05-30 19:42:00,
2013-05-30 15:47:00,83.3,68.0,30.10,SE,127,0.0,1.0,60,0.00,,CLR,0.00,VWS V14.00,2013-05-30 19:47:00,
2013-05-30 15:52:00,83.1,68.7,30.10,SE,127,0.0,1.0,62,0.00,,CLR,0.00,VWS V14.00,2013-05-30 19:52:00,
2013-05-30 15:57:00,83.0,68.2,30.10,SE,129,0.0,1.0,61,0.00,,CLR,0.00,VWS V14.00,2013-05-30 19:57:00,
2013-05-30 16:02:00,83.0,68.2,30.10,SSE,164,0.0,0.0,61,0.00,,CLR,0.00,VWS V14.00,2013-05-30 20:02:00,
2013-05-30 16:07:00,83.0,68.7,30.10,SSE,164,0.0,1.0,62,0.00,,CLR,0.00,VWS V14.00,2013-05-30 20:07:00,
2013-05-30 16:11:00,82.9,67.6,30.10,SSE,163,0.0,1.0,60,0.00,,CLR,0.00,VWS V14.00,2013-05-30 20:11:00,
2013-05-30 16:16:00,82.6,67.3,30.10,South,174,0.0,2.0,60,0.00,,CLR,0.00,VWS V14.00,2013-05-30 20:16:00,
2013-05-30 16:21:00,82.3,68.0,30.10,WSW,245,2.0,3.0,62,0.00,,CLR,0.00,VWS V14.00,2013-05-30 20:21:00,
2013-05-30 16:26:00,82.3,67.5,30.10,WNW,293,0.0,3.0,61,0.00,,CLR,0.00,VWS V14.00,2013-05-30 20:26:00,
2013-05-30 16:31:00,82.4,67.6,30.10,WNW,284,1.0,1.0,61,0.00,,CLR,0.00,VWS V14.00,2013-05-30 20:31:00,
2013-05-30 16:36:00,82.4,67.1,30.10,SW,231,0.0,3.0,60,0.00,,CLR,0.00,VWS V14.00,2013-05-30 20:36:00,
2013-05-30 16:41:00,82.4,67.1,30.10,SW,231,0.0,3.0,60,0.00,,CLR,0.00,VWS V14.00,2013-05-30 20:41:00,
2013-05-30 16:46:00,82.2,67.9,30.10,SW,236,3.0,3.0,62,0.00,,CLR,0.00,VWS V14.00,2013-05-30 20:46:00,
2013-05-30 16:51:00,82.0,67.2,30.10,SW,235,1.0,3.0,61,0.00,,CLR,0.00,VWS V14.00,2013-05-30 20:51:00,
2013-05-30 16:56:00,81.9,67.1,30.10,SW,235,0.0,3.0,61,0.00,,CLR,0.00,VWS V14.00,2013-05-30 20:56:00,
2013-05-30 17:01:00,82.0,65.8,30.10,SW,224,0.0,4.0,58,0.00,,CLR,0.00,VWS V14.00,2013-05-30 21:01:00,
2013-05-30 17:06:00,82.2,66.5,30.10,SW,225,0.0,4.0,59,0.00,,CLR,0.00,VWS V14.00,2013-05-30 21:06:00,
2013-05-30 17:11:00,82.4,66.7,30.10,SW,231,1.0,4.0,59,0.00,,CLR,0.00,VWS V14.00,2013-05-30 21:11:00,
2013-05-30 17:16:00,82.4,67.1,30.10,SW,225,1.0,4.0,60,0.00,,CLR,0.00,VWS V14.00,2013-05-30 21:16:00,
2013-05-30 17:21:00,82.2,66.9,30.10,SW,225,0.0,4.0,60,0.00,,CLR,0.00,VWS V14.00,2013-05-30 21:21:00,
2013-05-30 17:26:00,82.0,67.2,30.10,SW,225,0.0,4.0,61,0.00,,CLR,0.00,VWS V14.00,2013-05-30 21:26:00,
2013-05-30 17:31:00,81.9,66.2,30.10,SW,226,0.0,1.0,59,0.00,,CLR,0.00,VWS V14.00,2013-05-30 21:31:00,
2013-05-30 17:36:00,81.9,66.7,30.10,SW,218,0.0,3.0,60,0.00,,CLR,0.00,VWS V14.00,2013-05-30 21:36:00,
2013-05-30 17:41:00,81.7,66.0,30.10,SW,218,0.0,3.0,59,0.00,,CLR,0.00,VWS V14.00,2013-05-30 21:41:00,
2013-05-30 17:46:00,81.3,66.1,30.10,SW,218,1.0,3.0,60,0.00,,CLR,0.00,VWS V14.00,2013-05-30 21:46:00,
2013-05-30 17:51:00,81.0,65.8,30.10,SW,218,1.0,3.0,60,0.00,,CLR,0.00,VWS V14.00,2013-05-30 21:51:00,
2013-05-30 17:56:00,80.7,65.5,30.10,SW,215,0.0,3.0,60,0.00,,CLR,0.00,VWS V14.00,2013-05-30 21:56:00,
2013-05-30 18:01:00,80.6,65.4,30.09,SW,215,0.0,0.0,60,0.00,,CLR,0.00,VWS V14.00,2013-05-30 22:01:00,
2013-05-30 18:06:00,80.5,66.3,30.09,SW,215,0.0,1.0,62,0.00,,CLR,0.00,VWS V14.00,2013-05-30 22:06:00,
2013-05-30 18:11:00,80.5,66.8,30.09,SW,215,0.0,1.0,63,0.00,,CLR,0.00,VWS V14.00,2013-05-30 22:11:00,
2013-05-30 18:16:00,80.4,66.2,30.09,SW,219,0.0,1.0,62,0.00,,CLR,0.00,VWS V14.00,2013-05-30 22:16:00,
2013-05-30 18:21:00,80.3,67.5,30.09,SW,220,0.0,1.0,65,0.00,,CLR,0.00,VWS V14.00,2013-05-30 22:21:00,
2013-05-30 18:26:00,80.1,66.4,30.09,NNW,330,0.0,1.0,63,0.00,,CLR,0.00,VWS V14.00,2013-05-30 22:26:00,
2013-05-30 18:31:00,79.8,66.6,30.08,NNW,329,0.0,0.0,64,0.00,,CLR,0.00,VWS V14.00,2013-05-30 22:31:00,
2013-05-30 18:36:00,79.6,66.4,30.08,NNW,330,0.0,0.0,64,0.00,,CLR,0.00,VWS V14.00,2013-05-30 22:36:00,
2013-05-30 18:41:00,79.6,66.8,30.08,West,274,0.0,1.0,65,0.00,,CLR,0.00,VWS V14.00,2013-05-30 22:41:00,
2013-05-30 18:46:00,79.5,66.3,30.08,SW,226,0.0,1.0,64,0.00,,CLR,0.00,VWS V14.00,2013-05-30 22:46:00,
2013-05-30 18:51:00,79.3,66.5,30.08,SW,226,0.0,1.0,65,0.00,,CLR,0.00,VWS V14.00,2013-05-30 22:51:00,
2013-05-30 18:57:00,79.2,66.4,30.08,SW,226,0.0,1.0,65,0.00,,CLR,0.00,VWS V14.00,2013-05-30 22:57:00,
2013-05-30 19:02:00,79.1,66.8,30.08,SSW,203,0.0,0.0,66,0.00,,CLR,0.00,VWS V14.00,2013-05-30 23:02:00,
2013-05-30 19:07:00,79.0,67.1,30.08,SSW,207,0.0,0.0,67,0.00,,CLR,0.00,VWS V14.00,2013-05-30 23:07:00,
2013-05-30 19:12:00,78.9,66.6,30.08,SSW,205,0.0,0.0,66,0.00,,CLR,0.00,VWS V14.00,2013-05-30 23:12:00,
2013-05-30 19:16:00,78.7,66.4,30.08,SSW,205,0.0,0.0,66,0.00,,CLR,0.00,VWS V14.00,2013-05-30 23:16:00,
2013-05-30 19:21:00,78.6,66.3,30.08,SSW,205,0.0,0.0,66,0.00,,CLR,0.00,VWS V14.00,2013-05-30 23:21:00,
2013-05-30 19:26:00,78.5,66.6,30.08,SSW,204,0.0,0.0,67,0.00,,CLR,0.00,VWS V14.00,2013-05-30 23:26:00,
2013-05-30 19:31:00,78.2,66.8,30.08,SSW,204,0.0,0.0,68,0.00,,CLR,0.00,VWS V14.00,2013-05-30 23:31:00,
2013-05-30 19:36:00,78.0,66.2,30.08,SSW,204,0.0,0.0,67,0.00,,CLR,0.00,VWS V14.00,2013-05-30 23:36:00,
2013-05-30 19:41:00,77.8,65.5,30.08,SSW,204,0.0,0.0,66,0.00,,CLR,0.00,VWS V14.00,2013-05-30 23:41:00,
2013-05-30 19:47:00,77.6,65.8,30.08,SSW,204,0.0,0.0,67,0.00,,CLR,0.00,VWS V14.00,2013-05-30 23:47:00,
2013-05-30 19:51:00,77.4,65.6,30.08,SSW,203,0.0,0.0,67,0.00,,CLR,0.00,VWS V14.00,2013-05-30 23:51:00,
2013-05-30 19:57:00,77.1,64.9,30.08,SSW,203,0.0,0.0,66,0.00,,CLR,0.00,VWS V14.00,2013-05-30 23:57:00,
2013-05-30 20:02:00,77.0,64.8,30.08,SSW,203,0.0,0.0,66,0.00,,CLR,0.00,VWS V14.00,2013-05-31 00:02:00,
2013-05-30 20:07:00,77.0,64.8,30.08,SSW,203,0.0,0.0,66,0.00,,CLR,0.00,VWS V14.00,2013-05-31 00:07:00,
2013-05-30 20:12:00,76.9,65.5,30.08,SSW,203,0.0,0.0,68,0.00,,CLR,0.00,VWS V14.00,2013-05-31 00:12:00,
2013-05-30 20:17:00,76.6,66.5,30.08,SSW,203,0.0,0.0,71,0.00,,CLR,0.00,VWS V14.00,2013-05-31 00:17:00,
2013-05-30 20:22:00,76.3,67.4,30.08,SSW,203,0.0,0.0,74,0.00,,CLR,0.00,VWS V14.00,2013-05-31 00:22:00,
2013-05-30 20:27:00,75.9,67.4,30.08,SSW,203,0.0,0.0,75,0.00,,CLR,0.00,VWS V14.00,2013-05-31 00:27:00,
2013-05-30 20:32:00,75.4,66.2,30.08,SSW,203,0.0,0.0,73,0.00,,CLR,0.00,VWS V14.00,2013-05-31 00:32:00,
2013-05-30 20:37:00,75.0,66.2,30.08,SSW,203,0.0,0.0,74,0.00,,CLR,0.00,VWS V14.00,2013-05-31 00:37:00,
2013-05-30 20:42:00,74.6,66.9,30.08,SSW,203,0.0,0.0,77,0.00,,CLR,0.00,VWS V14.00,2013-05-31 00:42:00,
2013-05-30 20:47:00,74.3,67.4,30.08,SSW,203,0.0,0.0,79,0.00,,CLR,0.00,VWS V14.00,2013-05-31 00:47:00,
2013-05-30 20:52:00,74.0,67.4,30.08,SSW,203,0.0,0.0,80,0.00,,CLR,0.00,VWS V14.00,2013-05-31 00:52:00,
2013-05-30 20:57:00,73.7,67.5,30.08,SSW,203,0.0,0.0,81,0.00,,CLR,0.00,VWS V14.00,2013-05-31 00:57:00,
2013-05-30 21:02:00,73.3,66.8,30.08,SSW,203,0.0,0.0,80,0.00,,CLR,0.00,VWS V14.00,2013-05-31 01:02:00,
2013-05-30 21:07:00,73.1,67.3,30.08,SSW,203,0.0,0.0,82,0.00,,CLR,0.00,VWS V14.00,2013-05-31 01:07:00,
2013-05-30 21:12:00,72.7,67.2,30.08,SSW,203,0.0,0.0,83,0.00,,CLR,0.00,VWS V14.00,2013-05-31 01:12:00,
2013-05-30 21:17:00,72.3,66.8,30.08,SSW,203,0.0,0.0,83,0.00,,CLR,0.00,VWS V14.00,2013-05-31 01:17:00,
2013-05-30 21:22:00,72.0,66.9,30.08,SSW,203,0.0,0.0,84,0.00,,CLR,0.00,VWS V14.00,2013-05-31 01:22:00,
2013-05-30 21:27:00,71.6,66.9,30.08,SSW,203,0.0,0.0,85,0.00,,CLR,0.00,VWS V14.00,2013-05-31 01:27:00,
2013-05-30 21:32:00,71.3,66.6,30.09,SSW,203,0.0,0.0,85,0.00,,CLR,0.00,VWS V14.00,2013-05-31 01:32:00,
2013-05-30 21:37:00,71.1,66.7,30.09,SSW,203,0.0,0.0,86,0.00,,CLR,0.00,VWS V14.00,2013-05-31 01:37:00,
2013-05-30 21:42:00,70.9,66.5,30.09,SSW,203,0.0,0.0,86,0.00,,CLR,0.00,VWS V14.00,2013-05-31 01:42:00,
2013-05-30 21:47:00,70.8,66.7,30.10,SSW,203,0.0,0.0,87,0.00,,CLR,0.00,VWS V14.00,2013-05-31 01:47:00,
2013-05-30 21:52:00,70.6,66.2,30.10,SSW,203,0.0,0.0,86,0.00,,CLR,0.00,VWS V14.00,2013-05-31 01:52:00,
2013-05-30 21:57:00,70.4,66.3,30.10,SSW,203,0.0,0.0,87,0.00,,CLR,0.00,VWS V14.00,2013-05-31 01:57:00,
2013-05-30 22:02:00,70.2,66.5,30.10,SSW,203,0.0,0.0,88,0.00,,CLR,0.00,VWS V14.00,2013-05-31 02:02:00,
2013-05-30 22:07:00,70.0,66.3,30.10,SSW,203,0.0,0.0,88,0.00,,CLR,0.00,VWS V14.00,2013-05-31 02:07:00,
2013-05-30 22:12:00,69.9,66.2,30.10,SSW,203,0.0,0.0,88,0.00,,CLR,0.00,VWS V14.00,2013-05-31 02:12:00,
2013-05-30 22:17:00,69.7,66.0,30.11,SSW,203,0.0,0.0,88,0.00,,CLR,0.00,VWS V14.00,2013-05-31 02:17:00,
2013-05-30 22:22:00,69.4,65.7,30.11,SSW,203,0.0,0.0,88,0.00,,CLR,0.00,VWS V14.00,2013-05-31 02:22:00,
2013-05-30 22:27:00,69.3,65.9,30.11,SSW,203,0.0,0.0,89,0.00,,CLR,0.00,VWS V14.00,2013-05-31 02:27:00,
2013-05-30 22:32:00,69.1,65.4,30.10,SSW,203,0.0,0.0,88,0.00,,CLR,0.00,VWS V14.00,2013-05-31 02:32:00,
2013-05-30 22:37:00,69.0,65.6,30.10,SSW,203,0.0,0.0,89,0.00,,CLR,0.00,VWS V14.00,2013-05-31 02:37:00,
2013-05-30 22:42:00,69.0,65.6,30.10,SSW,203,0.0,0.0,89,0.00,,CLR,0.00,VWS V14.00,2013-05-31 02:42:00,
2013-05-30 22:47:00,69.0,65.3,30.10,SSW,203,0.0,0.0,88,0.00,,CLR,0.00,VWS V14.00,2013-05-31 02:47:00,
2013-05-30 22:52:00,68.9,65.2,30.10,SSW,203,0.0,0.0,88,0.00,,CLR,0.00,VWS V14.00,2013-05-31 02:52:00,
2013-05-30 22:57:00,69.0,65.9,30.10,SSW,203,0.0,0.0,90,0.00,,CLR,0.00,VWS V14.00,2013-05-31 02:57:00,
2013-05-30 23:02:00,69.1,65.7,30.11,SSW,203,0.0,0.0,89,0.00,,CLR,0.00,VWS V14.00,2013-05-31 03:02:00,
2013-05-30 23:07:00,68.9,65.5,30.11,SSW,203,0.0,0.0,89,0.00,,CLR,0.00,VWS V14.00,2013-05-31 03:07:00,
2013-05-30 23:12:00,68.8,65.4,30.11,SSW,203,0.0,0.0,89,0.00,,CLR,0.00,VWS V14.00,2013-05-31 03:12:00,
2013-05-30 23:17:00,68.5,65.1,30.11,SSW,203,0.0,0.0,89,0.00,,CLR,0.00,VWS V14.00,2013-05-31 03:17:00,
2013-05-30 23:22:00,68.1,64.7,30.11,SSW,203,0.0,0.0,89,0.00,,CLR,0.00,VWS V14.00,2013-05-31 03:22:00,
2013-05-30 23:27:00,67.7,64.7,30.11,SSW,203,0.0,0.0,90,0.00,,CLR,0.00,VWS V14.00,2013-05-31 03:27:00,
2013-05-30 23:32:00,67.3,64.6,30.10,SSW,203,0.0,0.0,91,0.00,,CLR,0.00,VWS V14.00,2013-05-31 03:32:00,
2013-05-30 23:37:00,66.9,64.2,30.10,SSW,203,0.0,0.0,91,0.00,,CLR,0.00,VWS V14.00,2013-05-31 03:37:00,
2013-05-30 23:42:00,66.6,64.2,30.10,West,260,0.0,1.0,92,0.00,,CLR,0.00,VWS V14.00,2013-05-31 03:42:00,
2013-05-30 23:47:00,66.4,64.0,30.10,West,260,0.0,1.0,92,0.00,,CLR,0.00,VWS V14.00,2013-05-31 03:47:00,
2013-05-30 23:52:00,66.3,63.9,30.10,West,260,0.0,1.0,92,0.00,,CLR,0.00,VWS V14.00,2013-05-31 03:52:00,
2013-05-30 23:57:00,66.1,63.7,30.10,West,261,0.0,1.0,92,0.00,,CLR,0.00,VWS V14.00,2013-05-31 03:57:00,